Wind_Speed
13 14 11 9 15 14 17 18 15 14 13 16 16 15 17 19 19 19 19 19 19 20 21 23 23 23 22 21 21 21 21 21 21 21 23 22 23 24 25 26 26 26 26
14 14 12 9 11 13 13 20 15 14 14 16 16 16 17 18 18 18 18 18 17 19 21 22 21 22 21 22 22 22 21 21 21 23 22 23 24 24 24 25 24 25 26
12 14 12 11 11 13 15 16 13 16 15 16 16 16 16 16 17 17 17 17 17 18 21 20 20 20 21 22 23 22 21 21 23 22 22 23 24 24 24 25 25 25 26
8 14 11 10 11 13 13 11 15 15 16 15 16 16 15 14 15 16 16 19 20 20 19 19 19 19 23 23 22 22 22 22 22 22 23 24 24 24 25 25 26 27 26
7 8 9 8 9 12 11 12 14 15 14 16 14 14 13 13 14 14 19 19 21 19 19 19 19 21 23 22 21 21 21 21 22 21 22 24 25 26 26 26 27 27 27
7 5 7 6 7 10 10 10 11 12 13 14 14 15 16 14 14 16 18 19 20 19 19 20 20 22 20 21 20 19 19 19 19 20 21 23 25 25 26 26 27 27 28
6 4 5 6 7 8 9 9 8 10 12 13 14 14 16 19 18 18 14 15 19 19 18 19 20 20 19 18 18 17 17 17 18 19 20 21 23 24 25 27 27 28 27
4 5 5 5 6 9 9 8 8 9 9 11 12 10 12 17 17 16 16 16 19 18 17 18 19 18 18 15 16 16 15 14 15 17 18 20 22 24 26 27 27 27 26
2 1 4 5 6 6 8 8 7 8 9 9 11 14 8 11 17 16 18 16 18 16 16 16 17 16 15 12 10 13 11 11 13 14 15 18 20 24 28 28 27 26 25
2 2 4 6 6 6 7 9 7 7 9 9 10 11 12 12 12 14 19 18 16 14 15 15 13 13 11 7 6 9 8 9 10 12 14 15 19 24 27 29 28 26 25
1 1 2 4 4 6 6 7 8 7 7 7 8 11 8 9 12 16 19 19 15 11 11 12 11 10 9 9 10 7 4 5 7 10 10 13 17 21 23 27 28 26 24
3 3 3 4 4 3 5 6 6 8 8 10 10 9 7 5 12 10 15 14 12 10 9 9 9 9 8 5 5 4 2 5 7 9 13 15 15 17 20 23 27 28 26
6 4 5 5 3 3 4 5 6 6 9 9 9 9 9 5 11 12 14 14 12 10 8 7 8 8 7 6 4 1 2 4 7 13 13 15 16 16 17 20 25 26 27
11 9 8 7 6 5 4 4 6 7 8 9 12 11 11 9 13 15 10 10 9 9 10 8 7 7 7 5 5 2 2 4 9 12 14 17 16 16 16 18 21 25 26
13 8 7 7 6 6 7 6 7 7 9 9 11 11 11 12 8 15 16 12 7 5 4 6 6 7 8 8 8 6 5 5 9 12 15 17 18 18 17 16 18 21 25
12 16 11 7 6 5 7 7 6 8 8 10 10 10 9 8 9 13 15 13 12 11 10 8 7 7 10 11 10 10 8 7 10 12 14 16 17 19 18 17 17 19 22
13 14 3 11 9 7 6 6 6 8 10 11 10 11 11 11 9 10 11 12 13 13 9 8 9 9 11 12 13 13 13 11 10 12 14 17 18 18 18 17 17 18 19
14 13 12 14 13 7 6 6 7 8 9 11 12 13 13 12 12 11 11 12 13 13 13 12 10 11 12 13 15 15 16 16 15 12 14 16 17 20 17 17 17 17 18
17 15 15 14 12 10 9 9 9 8 10 11 12 12 12 13 13 14 13 13 14 13 14 14 14 14 14 14 14 17 17 18 21 21 18 17 16 18 21 15 15 15 15
18 17 16 15 13 12 11 12 12 12 12 11 12 13 14 14 13 13 14 15 16 16 17 16 16 16 17 18 16 19 19 19 21 25 26 21 19 17 18 21 15 16 16
21 20 20 19 17 15 16 16 15 14 13 13 13 14 14 15 15 15 15 15 15 16 17 17 17 18 19 18 21 19 19 20 23 26 24 25 22 18 17 21 19 15 16
24 23 22 23 23 20 20 21 20 18 15 14 14 13 13 13 14 15 16 16 16 17 19 19 19 20 21 20 21 20 20 20 20 27 24 21 20 18 14 18 22 19 17
29 26 26 26 26 26 25 24 24 22 20 20 18 16 14 14 13 12 13 13 13 14 16 16 17 20 19 20 18 18 18 18 18 19 17 17 18 19 18 16 21 19 20
34 30 29 29 30 29 29 28 27 26 24 24 22 20 20 20 18 17 17 16 16 16 17 17 16 16 12 14 13 13 16 17 17 17 16 16 19 18 17 18 19 20 21
34 34 33 31 31 32 33 32 32 31 30 28 27 26 26 25 24 24 22 20 20 21 21 21 19 18 17 17 17 15 18 17 17 18 20 15 16 18 21 19 19 22 24
36 35 36 36 34 32 35 36 37 36 34 32 32 31 31 29 31 30 26 25 22 24 24 25 22 23 22 23 23 22 23 21 21 18 25 20 19 21 21 24 24 23 25
Wind_Direction
87 97 79 87 91 88 91 95 87 87 84 88 86 88 95 92 85 80 81 85 87 90 92 92 91 88 88 87 86 82 82 79 74 71 68 65 59 54 48 45 42 37 34
95 103 107 99 82 82 92 84 92 95 90 89 86 90 93 91 87 85 81 87 91 95 94 96 90 87 91 88 87 86 83 78 73 69 67 63 58 53 46 40 37 34 32
105 108 98 99 93 91 85 82 94 95 99 96 100 96 96 93 92 90 85 89 95 99 100 98 93 92 93 94 91 88 84 78 73 70 65 61 56 51 44 37 32 30 31
64 83 90 93 96 99 95 121 99 98 99 104 104 104 102 100 99 97 96 103 103 102 99 97 100 102 101 97 94 89 84 81 77 68 62 57 51 45 40 34 29 28 28
80 76 88 94 107 102 97 94 96 96 100 95 99 109 105 104 103 105 111 112 107 109 106 104 101 104 103 101 96 92 87 80 74 67 60 54 47 43 39 34 30 27 28
117 106 97 94 93 106 108 103 103 99 93 101 104 103 102 109 108 116 113 115 113 113 112 107 107 108 110 103 99 93 88 81 74 66 57 49 44 39 34 31 31 27 28
116 129 115 102 104 107 115 109 106 103 101 100 98 100 108 104 109 106 109 116 117 121 118 115 112 116 113 108 104 99 89 81 70 59 51 45 40 37 31 28 29 28 29
127 142 142 142 123 110 108 120 116 109 107 103 106 91 112 112 114 115 118 123 125 128 121 118 121 121 117 113 115 104 90 80 67 56 52 45 40 35 31 27 26 29 29
90 128 170 168 157 137 128 116 116 125 119 124 114 114 91 110 119 123 129 133 131 128 123 128 125 126 125 131 119 105 86 76 64 59 53 45 40 36 31 27 27 28 28
55 90 199 201 180 161 156 147 130 119 140 137 134 121 119 120 128 136 140 141 134 134 130 132 134 134 136 127 148 119 106 61 57 55 47 40 36 33 30 23 26 26 25
246 200 210 200 196 171 164 162 150 149 138 147 150 138 127 138 146 152 148 149 143 137 131 132 140 145 131 115 101 102 98 40 50 49 42 35 32 28 28 23 22 25 27
222 233 224 213 212 176 162 174 157 157 163 169 168 159 156 145 161 171 158 149 149 141 137 143 150 163 162 157 124 103 57 17 27 30 28 23 25 24 23 23 21 20 23
212 206 221 223 215 208 201 180 166 172 165 172 180 175 164 160 173 172 173 168 159 154 153 155 166 168 173 176 177 163 66 17 0 13 11 17 15 14 16 20 19 17 21
225 202 200 202 210 226 215 201 189 186 180 174 183 182 183 182 183 175 187 189 174 172 175 173 173 180 199 213 225 254 347 354 358 356 356 8 4 4 5 11 12 12 16
220 210 226 221 208 200 213 205 203 194 191 182 186 185 184 190 192 188 181 188 190 200 207 187 183 197 211 235 245 270 292 339 345 339 350 355 353 355 359 359 3 5 10
214 230 199 230 227 216 200 203 208 220 204 190 185 184 187 170 170 200 193 191 186 193 193 211 205 218 224 239 253 263 288 315 326 334 338 344 347 351 351 348 349 350 1
212 236 241 261 241 227 222 212 215 220 220 208 197 192 187 182 181 190 202 201 196 204 201 217 223 233 237 246 254 269 282 294 317 324 325 330 338 341 347 337 338 338 348
236 218 212 234 238 235 226 218 226 222 226 228 214 204 199 195 189 189 198 205 207 214 219 226 233 237 250 250 258 267 279 294 298 302 315 323 328 328 338 337 331 334 336
243 225 224 230 232 225 226 230 229 225 227 230 226 220 214 214 208 206 206 210 219 223 231 237 245 249 255 258 263 270 279 291 300 305 310 315 319 314 319 328 321 328 329
247 244 230 227 234 236 233 236 239 231 229 228 234 232 232 231 226 226 220 220 228 229 235 240 244 251 256 262 264 271 281 289 296 301 305 310 313 308 304 312 317 316 326
235 235 237 232 227 227 230 231 231 232 231 227 227 234 236 240 241 239 244 242 243 245 250 252 254 257 261 264 269 275 280 287 294 292 296 305 308 307 301 297 304 307 311
231 233 232 233 228 225 226 227 229 228 230 231 230 225 234 240 242 247 251 254 257 261 263 266 269 271 273 275 277 284 286 289 288 290 301 309 312 314 312 293 298 302 306
231 232 233 233 232 229 229 228 230 229 227 228 232 231 228 235 238 240 251 256 257 263 268 270 273 275 281 284 287 286 283 282 284 293 304 308 309 314 319 311 304 302 297
234 236 238 237 235 234 234 233 232 231 228 230 229 233 236 237 239 242 244 251 255 256 262 270 274 280 287 289 285 283 280 281 291 296 296 299 304 316 321 321 313 310 309
237 236 235 238 240 241 241 240 238 236 234 233 237 238 240 244 245 243 247 249 252 261 262 265 268 273 282 282 280 284 283 287 288 293 290 297 299 303 309 313 315 315 317
240 238 238 235 236 238 244 247 247 241 238 239 238 239 242 243 249 252 250 251 260 260 263 270 272 273 272 272 276 278 277 278 282 288 289 297 299 299 301 304 307 306 308
Height
5937 5939 5938 5936 5937 5939 5936 5938 5938 5940 5942 5941 5942 5944 5945 5946 5947 5948 5948 5949 5949 5950 5951 5952 5953 5954 5955 5955 5955 5954 5955 5954 5953 5952 5950 5950 5947 5944 5941 5938 5935 5932 5929
5938 5940 5942 5941 5940 5940 5939 5938 5942 5944 5946 5946 5947 5948 5949 5950 5950 5952 5952 5953 5954 5955 5956 5957 5958 5958 5958 5958 5958 5958 5958 5957 5957 5956 5955 5954 5951 5948 5944 5942 5938 5935 5932
5938 5941 5943 5946 5946 5944 5944 5945 5946 5947 5949 5949 5950 5952 5953 5954 5954 5955 5955 5957 5957 5959 5960 5961 5962 5962 5962 5963 5962 5962 5962 5962 5961 5960 5959 5957 5954 5951 5948 5945 5941 5937 5934
5940 5943 5945 5948 5949 5949 5949 5950 5950 5950 5951 5952 5952 5953 5956 5957 5957 5957 5958 5960 5961 5963 5964 5965 5965 5966 5966 5966 5967 5967 5967 5966 5965 5964 5962 5960 5957 5954 5951 5948 5944 5940 5936
5944 5945 5948 5949 5951 5951 5952 5954 5953 5954 5955 5955 5956 5956 5957 5959 5961 5962 5962 5964 5964 5967 5967 5968 5969 5970 5970 5971 5971 5971 5971 5971 5969 5968 5966 5963 5960 5958 5955 5951 5947 5943 5939
5950 5950 5950 5951 5952 5953 5955 5956 5957 5957 5958 5959 5959 5959 5960 5961 5963 5965 5966 5967 5968 5970 5971 5971 5973 5974 5975 5975 5975 5975 5975 5974 5973 5971 5969 5967 5964 5961 5957 5954 5950 5945 5941
5953 5954 5953 5953 5954 5955 5957 5959 5960 5961 5961 5961 5963 5962 5963 5964 5966 5967 5970 5970 5971 5973 5974 5975 5976 5978 5978 5979 5979 5979 5979 5978 5976 5975 5973 5970 5967 5964 5960 5956 5952 5948 5944
5955 5956 5955 5956 5955 5956 5957 5959 5961 5962 5963 5963 5964 5967 5966 5966 5968 5971 5973 5974 5975 5977 5978 5979 5980 5981 5982 5983 5982 5982 5982 5981 5980 5978 5975 5973 5970 5967 5963 5959 5955 5951 5947
5955 5957 5957 5957 5958 5958 5959 5960 5962 5964 5965 5965 5966 5967 5971 5970 5970 5973 5975 5977 5978 5980 5981 5982 5983 5984 5985 5986 5985 5985 5985 5984 5982 5980 5978 5976 5972 5969 5965 5961 5958 5954 5950
5956 5957 5959 5959 5959 5960 5962 5962 5963 5965 5967 5967 5968 5970 5970 5972 5973 5974 5976 5979 5981 5982 5983 5985 5985 5986 5987 5987 5987 5987 5987 5986 5984 5983 5981 5978 5975 5971 5968 5964 5960 5957 5952
5956 5957 5959 5959 5960 5960 5962 5963 5964 5966 5967 5969 5969 5970 5972 5974 5975 5975 5978 5980 5982 5985 5986 5987 5988 5989 5989 5989 5989 5989 5989 5988 5987 5985 5982 5980 5977 5974 5970 5966 5962 5958 5955
5955 5957 5958 5959 5960 5961 5962 5964 5965 5967 5968 5969 5970 5972 5973 5975 5976 5979 5979 5982 5984 5986 5987 5988 5989 5991 5992 5992 5991 5991 5990 5990 5989 5987 5984 5982 5979 5976 5972 5968 5964 5961 5956
5955 5957 5958 5958 5960 5961 5962 5964 5965 5967 5969 5970 5972 5974 5975 5976 5977 5980 5981 5983 5985 5986 5988 5989 5991 5993 5993 5993 5993 5992 5992 5991 5989 5988 5986 5983 5980 5977 5974 5971 5967 5963 5959
5953 5953 5955 5957 5958 5961 5962 5964 5967 5968 5969 5970 5971 5974 5975 5977 5977 5979 5983 5985 5986 5987 5988 5989 5991 5993 5993 5994 5993 5993 5993 5992 5990 5988 5986 5983 5980 5978 5976 5973 5969 5965 5961
5952 5955 5957 5959 5959 5960 5963 5965 5967 5969 5970 5970 5971 5973 5975 5977 5979 5980 5982 5985 5988 5989 5990 5990 5991 5992 5994 5993 5993 5994 5992 5992 5991 5989 5986 5984 5981 5978 5976 5973 5970 5966 5962
5953 5944 5949 5958 5960 5962 5962 5964 5967 5969 5970 5971 5972 5973 5975 5977 5979 5981 5982 5984 5986 5988 5990 5991 5991 5993 5993 5992 5993 5992 5992 5991 5991 5989 5986 5984 5981 5979 5976 5973 5970 5967 5964
5954 5952 5952 5958 5960 5961 5962 5963 5965 5970 5971 5972 5972 5973 5975 5976 5977 5979 5983 5984 5985 5987 5989 5990 5990 5991 5991 5992 5992 5991 5990 5990 5990 5988 5986 5983 5981 5978 5976 5972 5970 5967 5965
5945 5950 5953 5956 5959 5960 5960 5962 5964 5967 5970 5972 5972 5973 5974 5976 5977 5979 5980 5982 5984 5986 5987 5988 5989 5989 5989 5990 5989 5989 5988 5988 5987 5987 5985 5981 5980 5976 5975 5971 5968 5966 5963
5941 5946 5950 5954 5957 5958 5959 5961 5963 5966 5968 5969 5970 5972 5974 5975 5976 5977 5979 5980 5982 5984 5986 5986 5987 5986 5986 5987 5987 5986 5985 5985 5982 5981 5981 5980 5978 5974 5972 5970 5967 5964 5961
5938 5941 5945 5948 5951 5954 5957 5959 5962 5964 5966 5967 5968 5970 5972 5973 5975 5976 5977 5978 5979 5981 5982 5982 5983 5983 5982 5982 5984 5982 5981 5981 5980 5976 5973 5976 5975 5973 5970 5967 5965 5962 5960
5936 5938 5940 5943 5946 5950 5954 5957 5960 5962 5964 5964 5965 5967 5968 5971 5973 5974 5974 5975 5976 5977 5977 5978 5979 5979 5978 5978 5977 5979 5978 5977 5975 5971 5972 5970 5970 5968 5967 5963 5962 5960 5958
5931 5934 5937 5939 5942 5946 5949 5952 5955 5957 5960 5962 5963 5963 5965 5967 5968 5969 5970 5971 5972 5972 5973 5973 5974 5974 5973 5974 5973 5974 5973 5972 5972 5966 5967 5967 5964 5962 5963 5961 5958 5957 5954
5924 5928 5932 5935 5938 5941 5943 5946 5949 5951 5954 5957 5959 5961 5961 5963 5964 5965 5966 5968 5968 5968 5968 5968 5969 5967 5968 5968 5968 5968 5967 5966 5966 5965 5964 5963 5962 5961 5958 5957 5954 5952 5951
5916 5922 5926 5929 5932 5935 5937 5940 5942 5945 5948 5951 5954 5955 5957 5957 5958 5959 5960 5963 5964 5964 5963 5963 5964 5963 5964 5963 5963 5963 5962 5962 5962 5961 5961 5960 5957 5957 5956 5953 5951 5948 5946
5907 5912 5916 5921 5925 5929 5931 5932 5934 5938 5942 5945 5948 5949 5951 5952 5953 5952 5954 5956 5957 5958 5959 5958 5959 5960 5960 5959 5959 5959 5957 5958 5958 5957 5954 5955 5954 5953 5950 5949 5947 5944 5941
5899 5903 5907 5911 5915 5920 5924 5927 5928 5930 5935 5939 5940 5942 5944 5946 5946 5946 5947 5949 5951 5952 5952 5953 5954 5954 5955 5954 5953 5952 5951 5952 5951 5953 5948 5949 5948 5946 5945 5941 5941 5939 5937